Location: Angwan Shehu
(11.2514°N, 7.4613°E)
Time: 21:12:22
(UTC+00:00)

S-56A Canister/Altair - All Passes

Search period start: 17 April 2021 00:00
Search period end: 27 April 2021 00:00
Orbit: 632 x 2500 km, 38.9° (Epoch: 17 April)

Date Brightness Start Highest point End Pass type
(mag) Time Alt. Az. Time Alt. Az. Time Alt. Az.
17 Apr - 05:54:57 10° NNW 05:59:18 31° NE 06:04:54 10° ESE daylight
17 Apr - 07:57:53 10° WNW 08:03:17 39° SW 08:11:03 10° SSE daylight
17 Apr - 18:45:52 10° SSW 18:57:03 32° SE 19:05:22 10° E visible
17 Apr - 20:51:17 10° SW 21:02:55 78° NW 21:10:25 10° NE visible
17 Apr - 23:02:27 10° WNW 23:07:24 17° NW 23:11:26 10° N night (unlit)
18 Apr - 05:22:55 10° NNW 05:26:43 24° NE 05:31:19 10° E daylight
18 Apr - 07:25:20 10° WNW 07:30:30 46° SW 07:37:56 10° SSE daylight
18 Apr - 18:12:38 10° SSW 18:23:40 28° SE 18:32:12 10° E visible
18 Apr - 20:17:28 10° SW 20:29:54 89° NW 20:37:58 10° NE visible
18 Apr - 22:27:50 10° W 22:34:33 22° NW 22:39:39 10° N visible
19 Apr - 04:50:58 10° N 04:54:07 18° NE 04:57:40 10° E visible
19 Apr - 06:52:51 10° WNW 06:57:48 55° SW 07:04:49 10° SE daylight
19 Apr - 17:39:30 10° SSW 17:50:13 25° SE 17:58:51 10° E daylight
19 Apr - 19:43:42 10° SW 19:56:48 81° SE 20:05:26 10° NE visible
19 Apr - 21:53:24 10° W 22:01:41 27° NW 22:07:42 10° NNE visible
20 Apr - 04:19:14 10° N 04:21:29 13° NE 04:23:51 10° ENE visible
20 Apr - 06:20:24 10° WNW 06:25:10 68° SW 06:31:45 10° SE daylight
20 Apr - 08:28:27 10° SW 08:30:14 11° SSW 08:32:11 10° SSW daylight
20 Apr - 17:06:30 10° S 17:16:42 23° SE 17:25:17 10° E daylight
20 Apr - 19:10:01 10° SW 19:23:35 71° SE 19:32:48 10° ENE visible
20 Apr - 21:19:02 10° W 21:28:44 34° NW 21:35:35 10° NNE visible
21 Apr - 03:48:36 10° NNE 03:48:46 10° NNE 03:48:57 10° NE visible
21 Apr - 05:47:59 10° NW 05:52:35 86° SW 05:58:41 10° SE daylight
21 Apr - 07:54:45 10° WSW 07:57:17 13° SSW 08:00:09 10° S daylight
21 Apr - 16:33:40 10° S 16:43:08 20° SE 16:51:25 10° ESE daylight
21 Apr - 18:36:22 10° SW 18:50:18 63° SE 19:00:05 10° ENE visible
21 Apr - 20:44:44 10° WSW 20:55:46 41° NW 21:03:21 10° NNE visible
22 Apr - 05:15:36 10° NW 05:20:04 73° NE 05:25:39 10° SE daylight
22 Apr - 07:21:27 10° WSW 07:24:24 14° SW 07:27:51 10° S daylight
22 Apr - 16:01:06 10° S 16:09:31 17° SE 16:17:11 10° ESE daylight
22 Apr - 18:02:49 10° SW 18:16:54 57° SE 18:27:14 10° ENE visible
22 Apr - 20:10:30 10° WSW 20:22:41 49° NW 20:31:03 10° NNE visible
22 Apr - 22:25:24 10° NW 22:28:18 12° NNW 22:30:55 10° N visible
23 Apr - 04:43:14 10° NW 04:47:33 55° NE 04:52:38 10° ESE visible
23 Apr - 06:48:21 10° WSW 06:51:36 17° SW 06:55:28 10° S daylight
23 Apr - 15:28:54 10° S 15:35:52 14° SE 15:42:26 10° ESE daylight
23 Apr - 17:29:21 10° SSW 17:43:27 50° SE 17:54:15 10° ENE daylight
23 Apr - 19:36:22 10° WSW 19:49:33 58° NW 19:58:37 10° NE visible
23 Apr - 21:49:51 10° WNW 21:55:13 15° NNW 21:59:40 10° N visible
24 Apr - 04:10:53 10° NNW 04:15:04 41° NE 04:19:38 10° ESE visible
24 Apr - 06:15:23 10° W 06:18:52 20° SW 06:23:01 10° S daylight
24 Apr - 14:57:28 10° SSE 15:02:10 12° SE 15:06:45 10° ESE daylight
24 Apr - 16:56:01 10° SSW 17:09:57 45° SE 17:21:07 10° ENE daylight
24 Apr - 19:02:19 10° WSW 19:16:19 66° NW 19:26:07 10° NE visible
24 Apr - 21:14:47 10° WNW 21:22:06 19° NNW 21:27:52 10° N visible
25 Apr - 03:38:32 10° NNW 03:42:31 31° NE 03:46:37 10° E visible
25 Apr - 05:42:30 10° W 05:46:11 24° SW 05:50:32 10° SSE daylight
25 Apr - 16:22:47 10° SSW 16:36:22 40° SE 16:47:50 10° ENE daylight
25 Apr - 18:28:23 10° SW 18:42:59 76° NW 18:53:31 10° NE visible
25 Apr - 20:39:55 10° W 20:48:56 24° NW 20:55:48 10° NNE visible
26 Apr - 03:06:11 10° NNW 03:09:57 24° NE 03:13:37 10° E visible
26 Apr - 05:09:42 10° W 05:13:35 29° SW 05:18:03 10° SSE daylight
26 Apr - 15:49:43 10° SSW 16:02:47 35° SE 16:14:21 10° ENE daylight
26 Apr - 17:54:33 10° SW 18:09:35 85° NW 18:20:48 10° NE visible
26 Apr - 20:05:12 10° W 20:15:43 29° NW 20:23:36 10° NNE visible
